WS6A-13 Weather Reports


time (UTC)temp
C
wind
direction
speed
KPH
gust
KPH
rain 1hr
cm
rain 24hr
cm
rain mn
cm
humidity
%
barometer
mb
20260504023004 11 205 0.0 0.0 0.00 0.00 0.00 68 1012.5
20260504021504 11 205 0.0 0.0 0.00 0.00 0.00 74 1012.6
20260504014504 11 205 0.0 0.0 0.00 0.00 0.00 76 1012.4
20260504010004 12 205 0.0 0.0 0.00 0.00 0.00 74 1012.5
20260504004504 12 205 0.0 0.0 0.00 0.00 0.00 68 1012.4
20260504003004 11 206 0.0 1.6 0.00 0.00 0.00 68 1012.3
20260504001504 11 111 0.0 0.0 0.00 0.00 0.00 72 1012.2
20260504000003 11 111 0.0 0.0 0.00 0.00 0.00 72 1012.0
20260503234504 12 111 0.0 0.0 0.00 0.00 0.00 70 1011.9
20260503233004 12 111 0.0 0.0 0.00 0.00 0.00 70 1012.2
20260503230004 12 112 0.0 0.0 0.00 0.00 0.00 67 1013.0
20260503224503 12 123 0.0 0.0 0.00 0.00 0.00 65 1013.3
20260503221503 13 65 0.0 0.0 0.00 0.00 0.00 58 1013.9
20260503220003 13 103 0.0 0.0 0.00 0.00 0.00 58 1013.7
20260503214504 13 76 0.0 0.0 0.00 0.00 0.00 61 1013.8
20260503213004 12 78 0.0 0.0 0.00 0.00 0.00 57 1014.0
20260503210005 13 115 0.0 19.3 0.00 0.00 0.00 53 1014.5
20260503204504 15 167 3.2 14.5 0.00 0.00 0.00 47 1015.2
20260503203003 15 244 0.0 4.8 0.00 0.00 0.00 45 1014.8
20260503201504 15 221 1.6 9.7 0.00 0.00 0.00 45 1014.6
20260503194504 16 273 1.6 11.3 0.00 0.00 0.00 41 1014.9
20260503193004 16 218 0.0 4.8 0.00 0.00 0.00 47 1015.3
20260503183004 16 288 0.0 9.7 0.00 0.00 0.00 44 1016.1
20260503181517 17 217 3.2 8.0 0.00 0.00 0.00 47 1016.4
20260503180004 16 209 3.2 12.9 0.00 0.00 0.00 52 1016.5
20260503174503 16 11 1.6 4.8 0.00 0.00 0.00 45 1016.6
20260503173004 16 214 3.2 9.7 0.00 0.00 0.00 48 1017.1
20260503081504 1 16 0.0 0.0 0.00 0.00 0.00 87 1017.6
20260503071504 1 16 0.0 0.0 0.00 0.00 0.00 87 1017.5
20260503054504 2 16 0.0 0.0 0.00 0.00 0.00 84 1017.9
20260503053003 2 16 0.0 0.0 0.00 0.00 0.00 83 1017.9
20260503050004 2 16 0.0 0.0 0.00 0.00 0.00 83 1017.9
20260503044504 2 16 0.0 0.0 0.00 0.00 0.00 82 1017.9
20260503043004 2 16 0.0 0.0 0.00 0.00 0.00 83 1017.9
20260503040004 2 16 0.0 0.0 0.00 0.00 0.00 83 1017.9
20260503034504 2 16 0.0 0.0 0.00 0.00 0.00 81 1017.9
20260503033004 3 16 0.0 0.0 0.00 0.00 0.00 80 1017.9
20260503031504 3 16 0.0 0.0 0.00 0.00 0.00 78 1017.9
20260503030004 3 16 0.0 0.0 0.00 0.00 0.00 76 1018.0
20260503024504 3 16 0.0 0.0 0.00 0.00 0.00 77 1018.0